Total_Precipitation_Accumulation
1.61 1.68 1.74 1.86 1.92 1.96 1.99 1.97 1.97 1.96 1.97 1.97 2.07 2.13 2.15 2.17 2.35 2.54 2.46 2.73 2.88 2.93 2.73 2.70 2.66 2.69 2.70 2.53 2.62 2.74 2.81 3.14 3.13 2.48 2.30 2.38 2.49 2.48 2.55 2.44 2.32 2.31 2.12
1.61 1.76 1.82 1.97 2.02 1.95 1.98 2.17 2.17 2.11 2.07 2.07 2.16 2.25 2.22 2.24 2.41 2.41 2.27 2.37 2.60 2.84 3.06 3.19 2.94 2.95 2.95 2.77 2.76 2.75 2.82 3.06 3.10 2.87 2.66 2.61 2.66 2.61 2.62 2.45 2.08 1.98 2.06
1.48 1.65 1.89 1.98 2.04 2.20 2.36 2.52 2.54 2.42 2.36 2.35 2.42 2.35 2.38 2.45 2.44 2.35 2.37 2.39 2.49 2.57 2.83 3.11 3.12 3.31 3.05 3.05 2.95 2.82 2.83 2.84 3.02 2.85 2.64 2.81 2.82 2.77 2.71 2.32 2.13 2.21 2.03
1.63 1.84 2.03 2.26 2.43 2.58 2.59 2.68 2.69 2.63 2.60 2.59 2.60 2.52 2.48 2.53 2.56 2.54 2.52 2.48 2.52 2.49 2.55 2.68 2.81 3.11 3.11 3.18 3.01 3.02 3.14 3.19 3.29 3.13 2.92 2.98 3.10 3.12 3.01 2.62 2.46 2.36 2.22
1.92 2.05 2.12 2.24 2.43 2.70 2.93 2.93 2.85 2.76 2.66 2.83 2.81 2.71 2.70 2.69 2.48 2.63 2.85 2.81 2.86 2.63 2.53 2.50 2.49 2.74 2.83 2.90 2.65 2.86 3.19 3.24 3.29 3.20 3.05 3.05 3.04 3.21 2.94 2.77 2.62 2.58 2.48
2.37 2.52 2.66 2.76 2.88 3.02 3.11 3.17 3.22 3.16 3.08 3.02 2.91 2.95 2.91 2.64 2.76 2.84 2.77 2.81 3.00 2.97 2.82 2.74 2.60 2.54 2.54 2.58 2.61 2.70 2.86 2.88 2.95 3.05 2.94 2.89 2.91 3.06 3.24 3.12 2.94 2.78 2.50
2.53 2.66 2.78 2.89 3.05 3.21 3.30 3.36 3.22 3.17 3.11 3.01 2.99 3.04 2.95 2.96 2.92 2.68 2.56 2.57 2.66 2.75 2.79 2.75 2.44 2.29 2.53 2.43 2.60 2.62 2.44 2.37 2.38 2.54 2.53 2.52 2.94 3.26 3.58 3.25 3.08 2.92 2.65
2.72 2.82 2.88 2.93 3.02 3.23 3.44 3.36 3.19 3.16 3.10 3.06 3.02 2.92 2.84 2.73 2.79 2.54 2.54 2.43 2.37 2.32 2.45 2.55 2.49 2.36 2.39 2.52 2.44 2.18 1.95 1.95 2.02 1.94 1.95 2.19 2.64 3.22 3.53 3.49 3.48 3.23 2.88
2.45 2.64 2.66 2.81 3.00 3.11 3.15 3.18 3.26 3.23 3.02 2.86 2.77 2.76 2.71 2.76 3.01 2.73 2.59 2.36 2.34 2.17 2.19 2.20 2.21 2.06 2.22 2.37 2.26 2.01 1.82 1.74 1.80 1.81 1.79 2.01 2.30 2.66 3.11 3.33 3.21 3.03 2.60
2.39 2.60 2.78 2.94 3.10 3.13 3.16 3.30 3.37 3.34 3.30 3.25 3.11 3.04 2.94 2.89 3.11 2.85 2.66 2.38 2.33 2.26 2.28 2.23 2.29 2.06 2.00 1.96 1.85 1.86 1.66 1.57 1.72 1.70 1.64 1.69 1.83 2.16 2.67 2.75 2.77 2.86 2.55
2.45 2.55 2.69 2.89 3.12 3.37 3.55 3.48 3.49 3.47 3.39 3.23 3.09 2.95 2.90 2.87 2.83 2.64 2.48 2.16 2.09 2.16 2.02 1.90 1.94 1.96 1.75 1.60 1.57 1.53 1.47 1.58 1.68 1.64 1.55 1.55 1.69 1.88 2.07 2.33 2.56 2.60 2.43
2.57 2.67 2.74 2.94 3.02 3.17 3.45 3.47 3.40 3.40 3.31 3.23 3.22 3.17 3.06 2.86 2.58 2.34 2.21 2.05 2.04 2.01 2.01 1.99 2.02 2.05 1.81 1.67 1.49 1.35 1.42 1.45 1.48 1.58 1.50 1.42 1.46 1.58 1.85 2.15 2.46 2.58 2.49
2.53 2.71 2.91 3.02 3.08 3.21 3.38 3.44 3.43 3.35 3.22 3.10 3.00 2.84 2.83 2.81 2.70 2.47 2.17 1.96 1.92 1.79 1.96 2.28 2.32 2.24 2.01 1.73 1.64 1.66 1.60 1.46 1.46 1.48 1.41 1.35 1.41 1.58 1.87 2.21 2.48 2.70 2.67
2.51 2.58 2.74 2.90 3.04 3.20 3.23 3.09 2.97 2.83 2.77 2.77 2.64 2.52 2.52 2.58 2.46 2.36 2.17 2.05 2.03 1.92 1.95 2.23 2.41 2.39 2.25 2.01 1.89 1.81 1.61 1.52 1.59 1.59 1.61 1.65 1.77 1.91 2.05 2.19 2.42 2.59 2.67
2.54 2.61 2.60 2.62 2.71 2.87 2.95 2.90 2.77 2.60 2.47 2.43 2.32 2.31 2.30 2.25 2.29 2.35 2.18 2.05 2.03 2.09 2.16 2.32 2.45 2.55 2.57 2.49 2.37 2.29 2.17 2.02 1.84 1.79 1.86 1.87 1.93 2.03 2.09 2.23 2.48 2.57 2.51
2.63 2.50 2.42 2.33 2.33 2.40 2.43 2.46 2.59 2.48 2.47 2.32 2.19 2.13 2.06 2.10 2.15 2.11 2.02 1.94 1.95 2.09 2.12 2.17 2.41 2.61 2.70 2.78 2.81 2.69 2.48 2.29 2.12 2.09 2.05 2.03 2.06 2.08 2.14 2.29 2.49 2.58 2.44
2.55 2.38 2.27 2.20 2.20 2.16 2.15 2.20 2.35 2.42 2.38 2.28 2.24 2.08 1.93 1.95 1.93 1.91 1.89 1.84 1.88 1.97 1.92 2.02 2.15 2.27 2.47 2.69 2.75 2.71 2.51 2.40 2.44 2.41 2.32 2.29 2.31 2.32 2.32 2.42 2.59 2.68 2.62
2.33 2.39 2.27 2.13 2.17 2.23 2.25 2.23 2.25 2.31 2.30 2.20 2.19 2.13 1.87 1.76 1.76 1.73 1.73 1.65 1.53 1.56 1.61 1.80 2.00 2.16 2.32 2.57 2.72 2.74 2.68 2.62 2.64 2.70 2.67 2.60 2.57 2.48 2.38 2.32 2.46 2.58 2.61
2.17 2.22 2.26 2.25 2.23 2.29 2.34 2.25 2.16 2.14 2.14 2.03 1.95 2.00 1.96 1.79 1.70 1.69 1.67 1.48 1.41 1.43 1.53 1.57 1.66 1.87 2.09 2.33 2.59 2.76 2.76 2.66 2.61 2.68 2.68 2.63 2.61 2.58 2.42 2.30 2.35 2.56 2.61
2.09 2.25 2.17 2.20 2.22 2.21 2.26 2.27 2.25 2.25 2.18 2.07 1.98 1.95 1.91 1.77 1.63 1.73 1.80 1.74 1.64 1.60 1.59 1.59 1.69 1.87 2.06 2.29 2.50 2.61 2.65 2.66 2.61 2.58 2.52 2.46 2.46 2.45 2.31 2.25 2.26 2.34 2.37
1.97 2.05 2.11 1.94 1.97 2.10 2.11 2.14 2.20 2.25 2.21 2.11 1.98 1.96 1.88 1.64 1.69 1.80 1.92 1.97 1.87 1.76 1.71 1.70 1.73 1.82 1.99 2.20 2.36 2.49 2.53 2.57 2.60 2.61 2.57 2.47 2.44 2.44 2.38 2.33 2.32 2.34 2.36
1.99 1.87 1.84 1.87 2.02 2.13 2.19 2.18 2.16 2.12 2.08 2.05 2.00 1.98 1.98 1.72 1.77 1.84 1.89 1.96 1.99 1.97 1.91 1.92 1.92 1.92 1.99 2.13 2.28 2.40 2.43 2.44 2.49 2.56 2.61 2.60 2.60 2.58 2.62 2.63 2.57 2.52 2.51
1.91 1.86 1.82 1.83 1.98 2.15 2.21 2.19 2.18 2.14 2.10 2.08 2.03 2.01 2.00 1.92 1.92 2.01 2.05 2.08 2.07 2.04 1.99 1.97 1.94 1.93 1.95 1.98 2.06 2.20 2.29 2.30 2.28 2.38 2.49 2.47 2.42 2.42 2.47 2.51 2.53 2.56 2.53
1.70 1.81 1.85 1.82 1.88 1.93 1.96 1.97 1.96 1.92 1.93 1.94 1.97 2.03 2.05 2.06 2.10 2.16 2.11 2.05 1.98 1.93 1.92 1.88 1.83 1.79 1.82 1.88 1.90 1.89 1.96 2.06 2.05 2.09 2.22 2.29 2.27 2.24 2.30 2.34 2.42 2.51 2.61
1.55 1.72 1.82 1.80 1.77 1.80 1.78 1.71 1.69 1.75 1.84 1.95 2.00 2.01 2.02 2.03 2.03 1.98 1.89 1.80 1.73 1.77 1.80 1.78 1.74 1.65 1.60 1.61 1.64 1.68 1.85 1.93 1.94 1.93 1.92 2.02 2.07 2.10 2.13 2.19 2.30 2.45 2.61
1.58 1.68 1.72 1.72 1.71 1.76 1.81 1.78 1.72 1.75 1.85 1.88 1.91 1.90 1.90 1.89 1.88 1.83 1.75 1.69 1.65 1.65 1.70 1.73 1.68 1.55 1.50 1.49 1.50 1.56 1.58 1.53 1.63 1.77 1.76 1.80 1.95 2.05 2.06 2.08 2.13 2.26 2.38